Year,Month,Day,Hour,Minute,Value (Times are PST for insolation in W/m^2)
2020,04,19,00,00,0.00
2020,04,19,00,01,0.00
2020,04,19,00,02,0.00
2020,04,19,00,03,0.00
2020,04,19,00,04,0.00
2020,04,19,00,05,0.00
2020,04,19,00,06,0.00
2020,04,19,00,07,0.00
2020,04,19,00,08,0.00
2020,04,19,00,09,0.00
2020,04,19,00,10,0.00
2020,04,19,00,11,0.00
2020,04,19,00,12,0.00
2020,04,19,00,13,0.00
2020,04,19,00,14,0.00
2020,04,19,00,15,0.00
2020,04,19,00,16,0.00
2020,04,19,00,17,0.00
2020,04,19,00,18,0.00
2020,04,19,00,19,0.00
2020,04,19,00,20,0.00
2020,04,19,00,21,0.00
2020,04,19,00,22,0.00
2020,04,19,00,23,0.00
2020,04,19,00,24,0.00
2020,04,19,00,25,0.00
2020,04,19,00,26,0.00
2020,04,19,00,27,0.00
2020,04,19,00,28,0.00
2020,04,19,00,29,0.00
2020,04,19,00,30,0.00
2020,04,19,00,31,0.00
2020,04,19,00,32,0.00
2020,04,19,00,33,0.00
2020,04,19,00,34,0.00
2020,04,19,00,35,0.00
2020,04,19,00,36,0.00
2020,04,19,00,37,0.00
2020,04,19,00,38,0.00
2020,04,19,00,39,0.00
2020,04,19,00,40,0.00
2020,04,19,00,41,0.00
2020,04,19,00,42,0.00
2020,04,19,00,43,0.00
2020,04,19,00,44,0.00
2020,04,19,00,45,0.00
2020,04,19,00,46,0.00
2020,04,19,00,47,0.00
2020,04,19,00,48,0.00
2020,04,19,00,49,0.00
2020,04,19,00,50,0.00
2020,04,19,00,51,0.00
2020,04,19,00,52,0.00
2020,04,19,00,53,0.00
2020,04,19,00,54,0.00
2020,04,19,00,55,0.00
2020,04,19,00,56,0.00
2020,04,19,00,57,0.00
2020,04,19,00,58,0.00
2020,04,19,00,59,0.00
2020,04,19,01,00,0.00
2020,04,19,01,01,0.00
2020,04,19,01,02,0.00
2020,04,19,01,03,0.00
2020,04,19,01,04,0.00
2020,04,19,01,05,0.00
2020,04,19,01,06,0.00
2020,04,19,01,07,0.00
2020,04,19,01,08,0.00
2020,04,19,01,09,0.00
2020,04,19,01,10,0.00
2020,04,19,01,11,0.00
2020,04,19,01,12,0.00
2020,04,19,01,13,0.00
2020,04,19,01,14,0.00
2020,04,19,01,15,0.00
2020,04,19,01,16,0.00
2020,04,19,01,17,0.00
2020,04,19,01,18,0.00
2020,04,19,01,19,0.00
2020,04,19,01,20,0.00
2020,04,19,01,21,0.00
2020,04,19,01,22,0.00
2020,04,19,01,23,0.00
2020,04,19,01,24,0.00
2020,04,19,01,25,0.00
2020,04,19,01,26,0.00
2020,04,19,01,27,0.00
2020,04,19,01,28,0.00
2020,04,19,01,29,0.00
2020,04,19,01,30,0.00
2020,04,19,01,31,0.00
2020,04,19,01,32,0.00
2020,04,19,01,33,0.00
2020,04,19,01,34,0.00
2020,04,19,01,35,0.00
2020,04,19,01,36,0.00
2020,04,19,01,37,0.00
2020,04,19,01,38,0.00
2020,04,19,01,39,0.00
2020,04,19,01,40,0.00
2020,04,19,01,41,0.00
2020,04,19,01,42,0.00
2020,04,19,01,43,0.00
2020,04,19,01,44,0.00
2020,04,19,01,45,0.00
2020,04,19,01,46,0.00
2020,04,19,01,47,0.00
2020,04,19,01,48,0.00
2020,04,19,01,49,0.00
2020,04,19,01,50,0.00
2020,04,19,01,51,0.00
2020,04,19,01,52,0.00
2020,04,19,01,53,0.00
2020,04,19,01,54,0.00
2020,04,19,01,55,0.00
2020,04,19,01,56,0.00
2020,04,19,01,57,0.00
2020,04,19,01,58,0.00
2020,04,19,01,59,0.00
2020,04,19,02,00,0.00
2020,04,19,02,01,0.00
2020,04,19,02,02,0.00
2020,04,19,02,03,0.00
2020,04,19,02,04,0.00
2020,04,19,02,05,0.00
2020,04,19,02,06,0.00
2020,04,19,02,07,0.00
2020,04,19,02,08,0.00
2020,04,19,02,09,0.00
2020,04,19,02,10,0.00
2020,04,19,02,11,0.00
2020,04,19,02,12,0.00
2020,04,19,02,13,0.00
2020,04,19,02,14,0.00
2020,04,19,02,15,0.00
2020,04,19,02,16,0.00
2020,04,19,02,17,0.00
2020,04,19,02,18,0.00
2020,04,19,02,19,0.00
2020,04,19,02,20,0.00
2020,04,19,02,21,0.00
2020,04,19,02,22,0.00
2020,04,19,02,23,0.00
2020,04,19,02,24,0.00
2020,04,19,02,25,0.00
2020,04,19,02,26,0.00
2020,04,19,02,27,0.00
2020,04,19,02,28,0.00
2020,04,19,02,29,0.00
2020,04,19,02,30,0.00
2020,04,19,02,31,0.00
2020,04,19,02,32,0.00
2020,04,19,02,33,0.00
2020,04,19,02,34,0.00
2020,04,19,02,35,0.00
2020,04,19,02,36,0.00
2020,04,19,02,37,0.00
2020,04,19,02,38,0.00
2020,04,19,02,39,0.00
2020,04,19,02,40,0.00
2020,04,19,02,41,0.00
2020,04,19,02,42,0.00
2020,04,19,02,43,0.00
2020,04,19,02,44,0.00
2020,04,19,02,45,0.00
2020,04,19,02,46,0.00
2020,04,19,02,47,0.00
2020,04,19,02,48,0.00
2020,04,19,02,49,0.00
2020,04,19,02,50,0.00
2020,04,19,02,51,0.00
2020,04,19,02,52,0.00
2020,04,19,02,53,0.00
2020,04,19,02,54,0.00
2020,04,19,02,55,0.00
2020,04,19,02,56,0.00
2020,04,19,02,57,0.00
2020,04,19,02,58,0.00
2020,04,19,02,59,0.00
2020,04,19,03,00,0.00
2020,04,19,03,01,0.00
2020,04,19,03,02,0.00
2020,04,19,03,03,0.00
2020,04,19,03,04,0.00
2020,04,19,03,05,0.00
2020,04,19,03,06,0.00
2020,04,19,03,07,0.00
2020,04,19,03,08,0.00
2020,04,19,03,09,0.00
2020,04,19,03,10,0.00
2020,04,19,03,11,0.00
2020,04,19,03,12,0.00
2020,04,19,03,13,0.00
2020,04,19,03,14,0.00
2020,04,19,03,15,0.00
2020,04,19,03,16,0.00
2020,04,19,03,17,0.00
2020,04,19,03,18,0.00
2020,04,19,03,19,0.00
2020,04,19,03,20,0.00
2020,04,19,03,21,0.00
2020,04,19,03,22,0.00
2020,04,19,03,23,0.00
2020,04,19,03,24,0.00
2020,04,19,03,25,0.00
2020,04,19,03,26,0.00
2020,04,19,03,27,0.00
2020,04,19,03,28,0.00
2020,04,19,03,29,0.00
2020,04,19,03,30,0.00
2020,04,19,03,31,0.00
2020,04,19,03,32,0.00
2020,04,19,03,33,0.00
2020,04,19,03,34,0.00
2020,04,19,03,35,0.00
2020,04,19,03,36,0.00
2020,04,19,03,37,0.00
2020,04,19,03,38,0.00
2020,04,19,03,39,0.00
2020,04,19,03,40,0.00
2020,04,19,03,41,0.00
2020,04,19,03,42,0.00
2020,04,19,03,43,0.00
2020,04,19,03,44,0.00
2020,04,19,03,45,0.00
2020,04,19,03,46,0.00
2020,04,19,03,47,0.00
2020,04,19,03,48,0.00
2020,04,19,03,49,0.00
2020,04,19,03,50,0.00
2020,04,19,03,51,0.00
2020,04,19,03,52,0.00
2020,04,19,03,53,0.00
2020,04,19,03,54,0.00
2020,04,19,03,55,0.00
2020,04,19,03,56,0.00
2020,04,19,03,57,0.00
2020,04,19,03,58,0.00
2020,04,19,03,59,0.00
2020,04,19,04,00,0.00
2020,04,19,04,01,0.00
2020,04,19,04,02,0.00
2020,04,19,04,03,0.00
2020,04,19,04,04,0.00
2020,04,19,04,05,0.00
2020,04,19,04,06,0.00
2020,04,19,04,07,0.00
2020,04,19,04,08,0.00
2020,04,19,04,09,0.00
2020,04,19,04,10,0.00
2020,04,19,04,11,0.00
2020,04,19,04,12,0.00
2020,04,19,04,13,0.00
2020,04,19,04,14,0.00
2020,04,19,04,15,0.00
2020,04,19,04,16,0.00
2020,04,19,04,17,0.00
2020,04,19,04,18,0.00
2020,04,19,04,19,0.00
2020,04,19,04,20,0.00
2020,04,19,04,21,0.00
2020,04,19,04,22,0.00
2020,04,19,04,23,0.00
2020,04,19,04,24,0.00
2020,04,19,04,25,0.00
2020,04,19,04,26,0.00
2020,04,19,04,27,0.00
2020,04,19,04,28,0.00
2020,04,19,04,29,0.00
2020,04,19,04,30,0.00
2020,04,19,04,31,0.00
2020,04,19,04,32,0.00
2020,04,19,04,33,0.00
2020,04,19,04,34,0.00
2020,04,19,04,35,0.00
2020,04,19,04,36,0.00
2020,04,19,04,37,0.00
2020,04,19,04,38,0.00
2020,04,19,04,39,0.00
2020,04,19,04,40,0.00
2020,04,19,04,41,0.00
2020,04,19,04,42,0.00
2020,04,19,04,43,0.00
2020,04,19,04,44,0.00
2020,04,19,04,45,0.00
2020,04,19,04,46,0.00
2020,04,19,04,47,0.00
2020,04,19,04,48,0.00
2020,04,19,04,49,0.00
2020,04,19,04,50,0.00
2020,04,19,04,51,0.00
2020,04,19,04,52,0.00
2020,04,19,04,53,0.00
2020,04,19,04,54,0.00
2020,04,19,04,55,0.00
2020,04,19,04,56,0.00
2020,04,19,04,57,0.00
2020,04,19,04,58,0.00
2020,04,19,04,59,0.00
2020,04,19,05,00,0.00
2020,04,19,05,01,0.00
2020,04,19,05,02,0.00
2020,04,19,05,03,0.00
2020,04,19,05,04,0.00
2020,04,19,05,05,0.00
2020,04,19,05,06,0.00
2020,04,19,05,07,0.00
2020,04,19,05,08,0.00
2020,04,19,05,09,0.00
2020,04,19,05,10,0.00
2020,04,19,05,11,0.00
2020,04,19,05,12,0.00
2020,04,19,05,13,0.00
2020,04,19,05,14,0.00
2020,04,19,05,15,0.00
2020,04,19,05,16,0.00
2020,04,19,05,17,0.00
2020,04,19,05,18,0.00
2020,04,19,05,19,0.00
2020,04,19,05,20,0.00
2020,04,19,05,21,0.00
2020,04,19,05,22,0.00
2020,04,19,05,23,0.00
2020,04,19,05,24,0.00
2020,04,19,05,25,0.00
2020,04,19,05,26,0.00
2020,04,19,05,27,0.00
2020,04,19,05,28,0.00
2020,04,19,05,29,0.00
2020,04,19,05,30,0.00
2020,04,19,05,31,0.00
2020,04,19,05,32,0.00
2020,04,19,05,33,0.00
2020,04,19,05,34,0.00
2020,04,19,05,35,0.00
2020,04,19,05,36,0.00
2020,04,19,05,37,0.00
2020,04,19,05,38,0.00
2020,04,19,05,39,0.00
2020,04,19,05,40,0.00
2020,04,19,05,41,0.00
2020,04,19,05,42,0.00
2020,04,19,05,43,0.00
2020,04,19,05,44,0.00
2020,04,19,05,45,0.00
2020,04,19,05,46,0.00
2020,04,19,05,47,0.00
2020,04,19,05,48,0.00
2020,04,19,05,49,0.00
2020,04,19,05,50,0.00
2020,04,19,05,51,0.00
2020,04,19,05,52,0.00
2020,04,19,05,53,0.00
2020,04,19,05,54,0.00
2020,04,19,05,55,0.00
2020,04,19,05,56,0.00
2020,04,19,05,57,0.00
2020,04,19,05,58,0.00
2020,04,19,05,59,0.00
2020,04,19,06,00,0.00
2020,04,19,06,01,0.00
2020,04,19,06,02,0.00
2020,04,19,06,03,0.00
2020,04,19,06,04,0.00
2020,04,19,06,05,0.00
2020,04,19,06,06,0.00
2020,04,19,06,07,0.00
2020,04,19,06,08,0.00
2020,04,19,06,09,0.00
2020,04,19,06,10,0.00
2020,04,19,06,11,0.00
2020,04,19,06,12,0.00
2020,04,19,06,13,0.00
2020,04,19,06,14,0.00
2020,04,19,06,15,0.00
2020,04,19,06,16,0.00
2020,04,19,06,17,0.00
2020,04,19,06,18,0.00
2020,04,19,06,19,0.00
2020,04,19,06,20,0.00
2020,04,19,06,21,0.00
2020,04,19,06,22,0.00
2020,04,19,06,23,0.00
2020,04,19,06,24,0.00
2020,04,19,06,25,0.00
2020,04,19,06,26,0.00
2020,04,19,06,27,0.00
2020,04,19,06,28,0.00
2020,04,19,06,29,0.00
2020,04,19,06,30,0.00
2020,04,19,06,31,0.00
2020,04,19,06,32,0.00
2020,04,19,06,33,0.00
2020,04,19,06,34,0.00
2020,04,19,06,35,0.00
2020,04,19,06,36,0.00
2020,04,19,06,37,0.00
2020,04,19,06,38,0.00
2020,04,19,06,39,0.00
2020,04,19,06,40,0.00
2020,04,19,06,41,0.00
2020,04,19,06,42,0.00
2020,04,19,06,43,0.00
2020,04,19,06,44,0.00
2020,04,19,06,45,0.00
2020,04,19,06,46,0.00
2020,04,19,06,47,0.00
2020,04,19,06,48,0.00
2020,04,19,06,49,0.00
2020,04,19,06,50,0.20
2020,04,19,06,51,5.00
2020,04,19,06,52,5.00
2020,04,19,06,53,5.00
2020,04,19,06,54,5.00
2020,04,19,06,55,5.00
2020,04,19,06,56,5.00
2020,04,19,06,57,5.00
2020,04,19,06,58,6.00
2020,04,19,06,59,7.00
2020,04,19,07,00,7.00
2020,04,19,07,01,7.00
2020,04,19,07,02,7.00
2020,04,19,07,03,8.70
2020,04,19,07,04,9.00
2020,04,19,07,05,11.00
2020,04,19,07,06,11.00
2020,04,19,07,07,11.20
2020,04,19,07,08,12.50
2020,04,19,07,09,14.60
2020,04,19,07,10,16.70
2020,04,19,07,11,19.30
2020,04,19,07,12,22.00
2020,04,19,07,13,24.10
2020,04,19,07,14,27.00
2020,04,19,07,15,30.70
2020,04,19,07,16,34.30
2020,04,19,07,17,36.60
2020,04,19,07,18,38.70
2020,04,19,07,19,40.00
2020,04,19,07,20,42.10
2020,04,19,07,21,44.30
2020,04,19,07,22,46.20
2020,04,19,07,23,47.50
2020,04,19,07,24,49.60
2020,04,19,07,25,51.80
2020,04,19,07,26,53.40
2020,04,19,07,27,55.00
2020,04,19,07,28,56.00
2020,04,19,07,29,57.20
2020,04,19,07,30,58.00
2020,04,19,07,31,58.00
2020,04,19,07,32,58.00
2020,04,19,07,33,58.00
2020,04,19,07,34,58.00
2020,04,19,07,35,57.90
2020,04,19,07,36,56.00
2020,04,19,07,37,56.40
2020,04,19,07,38,58.50
2020,04,19,07,39,60.60
2020,04,19,07,40,62.00
2020,04,19,07,41,62.00
2020,04,19,07,42,62.00
2020,04,19,07,43,62.50
2020,04,19,07,44,64.20
2020,04,19,07,45,66.40
2020,04,19,07,46,68.50
2020,04,19,07,47,69.80
2020,04,19,07,48,70.00
2020,04,19,07,49,71.90
2020,04,19,07,50,72.00
2020,04,19,07,51,72.00
2020,04,19,07,52,71.60
2020,04,19,07,53,70.00
2020,04,19,07,54,69.70
2020,04,19,07,55,68.20
2020,04,19,07,56,66.10
2020,04,19,07,57,66.00
2020,04,19,07,58,68.10
2020,04,19,07,59,70.90
2020,04,19,08,00,73.40
2020,04,19,08,01,75.60
2020,04,19,08,02,74.40
2020,04,19,08,03,72.30
2020,04,19,08,04,69.10
2020,04,19,08,05,68.90
2020,04,19,08,06,67.00
2020,04,19,08,07,67.00
2020,04,19,08,08,67.00
2020,04,19,08,09,67.00
2020,04,19,08,10,67.00
2020,04,19,08,11,66.10
2020,04,19,08,12,65.00
2020,04,19,08,13,65.00
2020,04,19,08,14,65.00
2020,04,19,08,15,66.40
2020,04,19,08,16,67.00
2020,04,19,08,17,67.00
2020,04,19,08,18,71.30
2020,04,19,08,19,73.90
2020,04,19,08,20,76.00
2020,04,19,08,21,76.10
2020,04,19,08,22,77.80
2020,04,19,08,23,81.50
2020,04,19,08,24,84.00
2020,04,19,08,25,86.80
2020,04,19,08,26,88.90
2020,04,19,08,27,90.40
2020,04,19,08,28,92.00
2020,04,19,08,29,94.20
2020,04,19,08,30,93.70
2020,04,19,08,31,91.50
2020,04,19,08,32,88.60
2020,04,19,08,33,88.00
2020,04,19,08,34,88.00
2020,04,19,08,35,88.00
2020,04,19,08,36,88.00
2020,04,19,08,37,88.00
2020,04,19,08,38,88.00
2020,04,19,08,39,88.00
2020,04,19,08,40,87.40
2020,04,19,08,41,86.00
2020,04,19,08,42,85.00
2020,04,19,08,43,84.00
2020,04,19,08,44,84.00
2020,04,19,08,45,85.30
2020,04,19,08,46,86.00
2020,04,19,08,47,86.00
2020,04,19,08,48,86.00
2020,04,19,08,49,87.90
2020,04,19,08,50,90.10
2020,04,19,08,51,93.60
2020,04,19,08,52,97.60
2020,04,19,08,53,101.20
2020,04,19,08,54,105.70
2020,04,19,08,55,108.50
2020,04,19,08,56,111.90
2020,04,19,08,57,113.50
2020,04,19,08,58,115.10
2020,04,19,08,59,118.50
2020,04,19,09,00,120.70
2020,04,19,09,01,124.00
2020,04,19,09,02,126.60
2020,04,19,09,03,129.60
2020,04,19,09,04,133.60
2020,04,19,09,05,137.20
2020,04,19,09,06,141.30
2020,04,19,09,07,144.70
2020,04,19,09,08,148.80
2020,04,19,09,09,151.60
2020,04,19,09,10,153.00
2020,04,19,09,11,153.00
2020,04,19,09,12,153.00
2020,04,19,09,13,151.90
2020,04,19,09,14,151.00
2020,04,19,09,15,152.40
2020,04,19,09,16,155.30
2020,04,19,09,17,159.20
2020,04,19,09,18,164.30
2020,04,19,09,19,168.80
2020,04,19,09,20,172.10
2020,04,19,09,21,174.00
2020,04,19,09,22,174.40
2020,04,19,09,23,176.50
2020,04,19,09,24,179.00
2020,04,19,09,25,181.00
2020,04,19,09,26,181.00
2020,04,19,09,27,187.70
2020,04,19,09,28,197.90
2020,04,19,09,29,204.30
2020,04,19,09,30,211.10
2020,04,19,09,31,215.20
2020,04,19,09,32,219.40
2020,04,19,09,33,222.60
2020,04,19,09,34,224.90
2020,04,19,09,35,222.70
2020,04,19,09,36,214.80
2020,04,19,09,37,205.70
2020,04,19,09,38,198.80
2020,04,19,09,39,193.40
2020,04,19,09,40,188.50
2020,04,19,09,41,185.60
2020,04,19,09,42,185.50
2020,04,19,09,43,188.20
2020,04,19,09,44,193.10
2020,04,19,09,45,199.70
2020,04,19,09,46,205.60
2020,04,19,09,47,208.60
2020,04,19,09,48,207.30
2020,04,19,09,49,204.30
2020,04,19,09,50,201.90
2020,04,19,09,51,200.40
2020,04,19,09,52,204.50
2020,04,19,09,53,208.70
2020,04,19,09,54,215.90
2020,04,19,09,55,221.10
2020,04,19,09,56,221.70
2020,04,19,09,57,218.20
2020,04,19,09,58,213.30
2020,04,19,09,59,209.80
2020,04,19,10,00,209.00
2020,04,19,10,01,212.80
2020,04,19,10,02,219.70
2020,04,19,10,03,228.80
2020,04,19,10,04,238.60
2020,04,19,10,05,250.30
2020,04,19,10,06,257.30
2020,04,19,10,07,260.00
2020,04,19,10,08,260.00
2020,04,19,10,09,259.40
2020,04,19,10,10,257.60
2020,04,19,10,11,255.30
2020,04,19,10,12,251.60
2020,04,19,10,13,247.80
2020,04,19,10,14,242.90
2020,04,19,10,15,237.70
2020,04,19,10,16,231.40
2020,04,19,10,17,229.20
2020,04,19,10,18,227.30
2020,04,19,10,19,225.10
2020,04,19,10,20,225.10
2020,04,19,10,21,227.00
2020,04,19,10,22,227.40
2020,04,19,10,23,229.20
2020,04,19,10,24,231.30
2020,04,19,10,25,234.80
2020,04,19,10,26,236.40
2020,04,19,10,27,238.00
2020,04,19,10,28,240.10
2020,04,19,10,29,242.90
2020,04,19,10,30,245.40
2020,04,19,10,31,249.00
2020,04,19,10,32,250.80
2020,04,19,10,33,251.00
2020,04,19,10,34,251.00
2020,04,19,10,35,247.80
2020,04,19,10,36,243.70
2020,04,19,10,37,240.10
2020,04,19,10,38,235.00
2020,04,19,10,39,231.40
2020,04,19,10,40,230.80
2020,04,19,10,41,233.80
2020,04,19,10,42,237.40
2020,04,19,10,43,241.30
2020,04,19,10,44,244.90
2020,04,19,10,45,248.70
2020,04,19,10,46,250.80
2020,04,19,10,47,251.00
2020,04,19,10,48,252.70
2020,04,19,10,49,254.90
2020,04,19,10,50,257.20
2020,04,19,10,51,262.30
2020,04,19,10,52,265.80
2020,04,19,10,53,269.50
2020,04,19,10,54,271.30
2020,04,19,10,55,273.30
2020,04,19,10,56,279.00
2020,04,19,10,57,286.50
2020,04,19,10,58,292.90
2020,04,19,10,59,296.20
2020,04,19,11,00,299.70
2020,04,19,11,01,301.00
2020,04,19,11,02,306.70
2020,04,19,11,03,312.30
2020,04,19,11,04,319.40
2020,04,19,11,05,325.10
2020,04,19,11,06,327.30
2020,04,19,11,07,329.20
2020,04,19,11,08,331.00
2020,04,19,11,09,335.30
2020,04,19,11,10,339.10
2020,04,19,11,11,342.70
2020,04,19,11,12,346.40
2020,04,19,11,13,349.10
2020,04,19,11,14,350.00
2020,04,19,11,15,347.40
2020,04,19,11,16,343.80
2020,04,19,11,17,341.40
2020,04,19,11,18,339.30
2020,04,19,11,19,339.00
2020,04,19,11,20,338.00
2020,04,19,11,21,339.30
2020,04,19,11,22,340.60
2020,04,19,11,23,339.00
2020,04,19,11,24,340.30
2020,04,19,11,25,343.70
2020,04,19,11,26,345.40
2020,04,19,11,27,346.00
2020,04,19,11,28,345.50
2020,04,19,11,29,345.00
2020,04,19,11,30,345.00
2020,04,19,11,31,345.00
2020,04,19,11,32,345.00
2020,04,19,11,33,345.90
2020,04,19,11,34,347.80
2020,04,19,11,35,347.90
2020,04,19,11,36,346.00
2020,04,19,11,37,346.70
2020,04,19,11,38,351.70
2020,04,19,11,39,358.40
2020,04,19,11,40,363.80
2020,04,19,11,41,367.90
2020,04,19,11,42,370.00
2020,04,19,11,43,371.00
2020,04,19,11,44,369.80
2020,04,19,11,45,367.00
2020,04,19,11,46,364.60
2020,04,19,11,47,360.80
2020,04,19,11,48,360.00
2020,04,19,11,49,360.00
2020,04,19,11,50,364.10
2020,04,19,11,51,367.60
2020,04,19,11,52,373.20
2020,04,19,11,53,374.00
2020,04,19,11,54,374.00
2020,04,19,11,55,373.60
2020,04,19,11,56,372.10
2020,04,19,11,57,372.50
2020,04,19,11,58,377.30
2020,04,19,11,59,384.20
2020,04,19,12,00,387.70
2020,04,19,12,01,388.00
2020,04,19,12,02,389.60
2020,04,19,12,03,387.40
2020,04,19,12,04,381.30
2020,04,19,12,05,376.20
2020,04,19,12,06,381.70
2020,04,19,12,07,390.00
2020,04,19,12,08,401.90
2020,04,19,12,09,414.10
2020,04,19,12,10,424.70
2020,04,19,12,11,429.00
2020,04,19,12,12,424.70
2020,04,19,12,13,418.40
2020,04,19,12,14,417.00
2020,04,19,12,15,422.30
2020,04,19,12,16,446.10
2020,04,19,12,17,512.30
2020,04,19,12,18,528.60
2020,04,19,12,19,489.00
2020,04,19,12,20,470.80
2020,04,19,12,21,464.30
2020,04,19,12,22,445.10
2020,04,19,12,23,435.10
2020,04,19,12,24,451.70
2020,04,19,12,25,457.20
2020,04,19,12,26,436.70
2020,04,19,12,27,416.50
2020,04,19,12,28,396.70
2020,04,19,12,29,392.50
2020,04,19,12,30,400.70
2020,04,19,12,31,458.90
2020,04,19,12,32,476.00
2020,04,19,12,33,476.00
2020,04,19,12,34,602.40
2020,04,19,12,35,609.40
2020,04,19,12,36,506.20
2020,04,19,12,37,588.90
2020,04,19,12,38,566.00
2020,04,19,12,39,523.70
2020,04,19,12,40,422.00
2020,04,19,12,41,413.00
2020,04,19,12,42,371.50
2020,04,19,12,43,313.40
2020,04,19,12,44,317.50
2020,04,19,12,45,348.30
2020,04,19,12,46,406.10
2020,04,19,12,47,412.90
2020,04,19,12,48,406.60
2020,04,19,12,49,406.00
2020,04,19,12,50,388.20
2020,04,19,12,51,398.70
2020,04,19,12,52,442.00
2020,04,19,12,53,437.70
2020,04,19,12,54,401.00
2020,04,19,12,55,390.20
2020,04,19,12,56,455.70
2020,04,19,12,57,510.00
2020,04,19,12,58,431.50
2020,04,19,12,59,354.30
2020,04,19,13,00,333.70
2020,04,19,13,01,327.00
2020,04,19,13,02,382.90
2020,04,19,13,03,339.40
2020,04,19,13,04,333.80
2020,04,19,13,05,333.00
2020,04,19,13,06,309.50
2020,04,19,13,07,274.70
2020,04,19,13,08,276.60
2020,04,19,13,09,316.40
2020,04,19,13,10,369.70
2020,04,19,13,11,399.00
2020,04,19,13,12,425.20
2020,04,19,13,13,454.00
2020,04,19,13,14,397.00
2020,04,19,13,15,382.00
2020,04,19,13,16,392.00
2020,04,19,13,17,456.00
2020,04,19,13,18,517.70
2020,04,19,13,19,547.80
2020,04,19,13,20,550.00
2020,04,19,13,21,550.00
2020,04,19,13,22,624.90
2020,04,19,13,23,963.20
2020,04,19,13,24,957.30
2020,04,19,13,25,919.50
2020,04,19,13,26,896.00
2020,04,19,13,27,882.70
2020,04,19,13,28,874.00
2020,04,19,13,29,877.80
2020,04,19,13,30,877.00
2020,04,19,13,31,879.90
2020,04,19,13,32,890.70
2020,04,19,13,33,893.00
2020,04,19,13,34,893.00
2020,04,19,13,35,937.00
2020,04,19,13,36,937.00
2020,04,19,13,37,937.00
2020,04,19,13,38,952.50
2020,04,19,13,39,997.40
2020,04,19,13,40,964.70
2020,04,19,13,41,930.00
2020,04,19,13,42,930.00
2020,04,19,13,43,852.50
2020,04,19,13,44,788.00
2020,04,19,13,45,816.00
2020,04,19,13,46,830.00
2020,04,19,13,47,830.00
2020,04,19,13,48,830.00
2020,04,19,13,49,393.90
2020,04,19,13,50,309.00
2020,04,19,13,51,309.00
2020,04,19,13,52,309.00
2020,04,19,13,53,309.00
2020,04,19,13,54,309.00
2020,04,19,13,55,309.00
2020,04,19,13,56,309.00
2020,04,19,13,57,378.00
2020,04,19,13,58,454.00
2020,04,19,13,59,454.00
2020,04,19,14,00,334.00
2020,04,19,14,01,338.80
2020,04,19,14,02,359.00
2020,04,19,14,03,359.00
2020,04,19,14,04,365.40
2020,04,19,14,05,366.00
2020,04,19,14,06,366.00
2020,04,19,14,07,366.00
2020,04,19,14,08,334.20
2020,04,19,14,09,247.40
2020,04,19,14,10,288.80
2020,04,19,14,11,327.00
2020,04,19,14,12,570.30
2020,04,19,14,13,838.00
2020,04,19,14,14,921.00
2020,04,19,14,15,976.50
2020,04,19,14,16,979.00
2020,04,19,14,17,979.00
2020,04,19,14,18,979.00
2020,04,19,14,19,823.80
2020,04,19,14,20,821.80
2020,04,19,14,21,936.10
2020,04,19,14,22,928.00
2020,04,19,14,23,928.00
2020,04,19,14,24,928.00
2020,04,19,14,25,830.90
2020,04,19,14,26,640.20
2020,04,19,14,27,560.50
2020,04,19,14,28,486.10
2020,04,19,14,29,452.00
2020,04,19,14,30,811.30
2020,04,19,14,31,991.00
2020,04,19,14,32,584.60
2020,04,19,14,33,483.00
2020,04,19,14,34,483.00
2020,04,19,14,35,475.10
2020,04,19,14,36,319.70
2020,04,19,14,37,344.40
2020,04,19,14,38,392.00
2020,04,19,14,39,475.50
2020,04,19,14,40,726.00
2020,04,19,14,41,726.00
2020,04,19,14,42,726.00
2020,04,19,14,43,781.40
2020,04,19,14,44,818.80
2020,04,19,14,45,768.70
2020,04,19,14,46,793.80
2020,04,19,14,47,815.50
2020,04,19,14,48,814.40
2020,04,19,14,49,804.00
2020,04,19,14,50,774.30
2020,04,19,14,51,823.20
2020,04,19,14,52,839.30
2020,04,19,14,53,852.50
2020,04,19,14,54,863.00
2020,04,19,14,55,863.00
2020,04,19,14,56,863.00
2020,04,19,14,57,618.70
2020,04,19,14,58,350.00
2020,04,19,14,59,350.00
2020,04,19,15,00,656.70
2020,04,19,15,01,799.30
2020,04,19,15,02,765.00
2020,04,19,15,03,794.00
2020,04,19,15,04,790.00
2020,04,19,15,05,772.20
2020,04,19,15,06,755.00
2020,04,19,15,07,745.40
2020,04,19,15,08,746.50
2020,04,19,15,09,744.00
2020,04,19,15,10,742.00
2020,04,19,15,11,742.90
2020,04,19,15,12,744.00
2020,04,19,15,13,746.70
2020,04,19,15,14,759.20
2020,04,19,15,15,766.00
2020,04,19,15,16,401.80
2020,04,19,15,17,275.00
2020,04,19,15,18,272.00
2020,04,19,15,19,697.50
2020,04,19,15,20,738.10
2020,04,19,15,21,739.70
2020,04,19,15,22,735.10
2020,04,19,15,23,721.60
2020,04,19,15,24,712.00
2020,04,19,15,25,706.30
2020,04,19,15,26,704.10
2020,04,19,15,27,702.00
2020,04,19,15,28,702.10
2020,04,19,15,29,703.00
2020,04,19,15,30,701.70
2020,04,19,15,31,697.40
2020,04,19,15,32,692.00
2020,04,19,15,33,689.30
2020,04,19,15,34,686.30
2020,04,19,15,35,686.00
2020,04,19,15,36,686.00
2020,04,19,15,37,685.60
2020,04,19,15,38,683.50
2020,04,19,15,39,681.40
2020,04,19,15,40,679.60
2020,04,19,15,41,677.30
2020,04,19,15,42,671.50
2020,04,19,15,43,665.80
2020,04,19,15,44,662.10
2020,04,19,15,45,659.70
2020,04,19,15,46,659.00
2020,04,19,15,47,659.00
2020,04,19,15,48,657.30
2020,04,19,15,49,654.10
2020,04,19,15,50,648.90
2020,04,19,15,51,647.00
2020,04,19,15,52,647.00
2020,04,19,15,53,645.50
2020,04,19,15,54,640.00
2020,04,19,15,55,638.50
2020,04,19,15,56,634.70
2020,04,19,15,57,633.00
2020,04,19,15,58,633.00
2020,04,19,15,59,631.80
2020,04,19,16,00,628.90
2020,04,19,16,01,625.10
2020,04,19,16,02,622.40
2020,04,19,16,03,619.40
2020,04,19,16,04,617.20
2020,04,19,16,05,614.90
2020,04,19,16,06,612.90
2020,04,19,16,07,611.60
2020,04,19,16,08,610.00
2020,04,19,16,09,608.90
2020,04,19,16,10,605.60
2020,04,19,16,11,604.10
2020,04,19,16,12,602.00
2020,04,19,16,13,599.90
2020,04,19,16,14,598.40
2020,04,19,16,15,596.70
2020,04,19,16,16,594.50
2020,04,19,16,17,592.40
2020,04,19,16,18,589.40
2020,04,19,16,19,587.10
2020,04,19,16,20,584.00
2020,04,19,16,21,584.00
2020,04,19,16,22,584.00
2020,04,19,16,23,583.50
2020,04,19,16,24,582.00
2020,04,19,16,25,582.00
2020,04,19,16,26,582.90
2020,04,19,16,27,584.00
2020,04,19,16,28,584.00
2020,04,19,16,29,584.00
2020,04,19,16,30,584.00
2020,04,19,16,31,587.60
2020,04,19,16,32,596.30
2020,04,19,16,33,604.90
2020,04,19,16,34,614.60
2020,04,19,16,35,619.00
2020,04,19,16,36,618.80
2020,04,19,16,37,616.60
2020,04,19,16,38,614.40
2020,04,19,16,39,611.40
2020,04,19,16,40,608.20
2020,04,19,16,41,605.00
2020,04,19,16,42,608.50
2020,04,19,16,43,620.00
2020,04,19,16,44,643.30
2020,04,19,16,45,660.10
2020,04,19,16,46,663.00
2020,04,19,16,47,310.00
2020,04,19,16,48,209.90
2020,04,19,16,49,196.10
2020,04,19,16,50,192.50
2020,04,19,16,51,203.10
2020,04,19,16,52,214.70
2020,04,19,16,53,216.80
2020,04,19,16,54,213.00
2020,04,19,16,55,236.20
2020,04,19,16,56,292.00
2020,04,19,16,57,294.00
2020,04,19,16,58,273.50
2020,04,19,16,59,279.00
2020,04,19,17,00,279.00
2020,04,19,17,01,269.90
2020,04,19,17,02,259.70
2020,04,19,17,03,270.50
2020,04,19,17,04,301.00
2020,04,19,17,05,319.00
2020,04,19,17,06,275.80
2020,04,19,17,07,262.60
2020,04,19,17,08,262.60
2020,04,19,17,09,252.40
2020,04,19,17,10,261.30
2020,04,19,17,11,284.90
2020,04,19,17,12,290.70
2020,04,19,17,13,272.30
2020,04,19,17,14,251.30
2020,04,19,17,15,246.00